DW0323 Weather Reports


Display with metric or nautical units.
time (UTC)temp
F
wind
direction
speed
MPH
gust
MPH
rain 1hr
in
rain 24hr
in
rain mn
in
humidity
%
barometer
mb
20200226142128 61 284 1.0 4.0 0.00 0.03 0.03 88 1011.8
20200226141620 61 266 2.0 4.0 0.00 0.03 0.03 88 1011.8
20200226141114 61 270 0.0 4.0 0.00 0.03 0.03 88 1011.5
20200226140626 61 270 2.0 4.0 0.00 0.03 0.03 88 1011.5
20200226140120 61 239 1.0 4.0 0.00 0.03 0.03 88 1011.3
20200226135614 61 267 0.0 2.0 0.00 0.03 0.03 88 1011.3
20200226135128 61 233 0.0 0.0 0.00 0.03 0.03 88 1011.4
20200226134620 61 248 0.0 0.0 0.00 0.03 0.03 88 1011.5
20200226134114 61 251 0.0 0.0 0.00 0.03 0.03 88 1011.4
20200226133625 61 245 0.0 0.0 0.00 0.03 0.03 88 1011.6
20200226133119 60 245 0.0 0.0 0.00 0.03 0.03 88 1011.6
20200226132631 60 245 0.0 0.0 0.00 0.03 0.03 88 1011.4
20200226132123 60 245 0.0 0.0 0.00 0.03 0.03 88 1011.5
20200226131614 60 245 0.0 0.0 0.00 0.03 0.03 88 1011.6
20200226131129 60 245 0.0 0.0 0.00 0.03 0.03 88 1011.5
20200226130621 60 244 0.0 0.0 0.00 0.03 0.03 88 1011.5
20200226130115 60 244 0.0 0.0 0.00 0.03 0.03 88 1011.4
20200226125626 60 243 0.0 0.0 0.00 0.03 0.03 88 1011.3
20200226125119 60 243 0.0 0.0 0.00 0.03 0.03 88 1011.2
20200226124612 60 243 0.0 0.0 0.00 0.03 0.03 88 1011.2
20200226124125 60 243 0.0 0.0 0.00 0.03 0.03 88 1011.2
20200226123617 59 243 0.0 0.0 0.00 0.03 0.03 88 1011.1
20200226123130 59 243 0.0 0.0 0.00 0.03 0.03 88 1011.3
20200226122621 59 243 0.0 0.0 0.00 0.03 0.03 88 1011.4
20200226122114 59 243 0.0 0.0 0.00 0.03 0.03 88 1011.2
20200226121627 59 243 0.0 0.0 0.00 0.03 0.03 88 1011.1
20200226121125 59 243 0.0 0.0 0.01 0.03 0.03 88 1011.1
20200226120618 60 243 0.0 0.0 0.01 0.04 0.03 88 1011.2
20200226120132 60 243 0.0 1.0 0.01 0.04 0.03 88 1011.2
20200226115623 60 243 0.0 1.0 0.01 0.04 0.03 88 1011.3
20200226115115 60 245 0.0 1.0 0.01 0.04 0.03 88 1011.1
20200226114628 60 239 0.0 1.0 0.01 0.04 0.03 88 1011.3
20200226114123 60 237 0.0 1.0 0.01 0.04 0.03 88 1010.9
20200226113614 60 238 0.0 1.0 0.01 0.04 0.03 88 1011.1
20200226113127 60 237 0.0 2.0 0.01 0.04 0.03 88 1011.2
20200226112619 60 245 0.0 2.0 0.01 0.04 0.03 88 1011.1
20200226112112 59 256 0.0 0.0 0.01 0.04 0.03 88 1011.1
20200226111624 60 256 0.0 0.0 0.01 0.04 0.03 88 1011.0
20200226111119 60 256 0.0 0.0 0.00 0.03 0.02 88 1011.1
20200226110630 59 262 0.0 0.0 0.00 0.04 0.02 88 1011.1
20200226110121 59 217 0.0 0.0 0.00 0.04 0.02 88 1010.9
20200226105614 59 217 0.0 0.0 0.01 0.04 0.02 88 1010.8
20200226105126 59 217 0.0 0.0 0.01 0.04 0.02 88 1010.8
20200226104619 59 217 0.0 0.0 0.01 0.04 0.02 88 1010.9
20200226104112 59 217 0.0 0.0 0.01 0.04 0.02 88 1010.7
20200226103625 59 217 0.0 0.0 0.01 0.04 0.02 88 1010.7
20200226103121 59 217 0.0 0.0 0.01 0.04 0.02 88 1010.8
20200226102614 59 217 0.0 0.0 0.01 0.04 0.02 88 1010.9
20200226102126 60 217 0.0 0.0 0.01 0.04 0.02 88 1010.8
20200226101620 60 217 0.0 0.0 0.01 0.04 0.02 88 1010.8
20200226101112 60 217 0.0 0.0 0.01 0.04 0.02 88 1010.9
20200226100627 60 217 0.0 1.0 0.01 0.06 0.02 88 1010.8
20200226100125 60 257 0.0 1.0 0.01 0.06 0.02 88 1011.0
20200226095617 60 257 1.0 1.0 0.00 0.05 0.01 88 1011.2
20200226095131 60 221 0.0 0.0 0.00 0.05 0.01 88 1010.8
20200226094622 60 221 0.0 0.0 0.00 0.05 0.01 88 1010.7
20200226094116 60 221 0.0 0.0 0.00 0.05 0.01 88 1010.6
20200226093628 59 221 0.0 0.0 0.00 0.05 0.01 88 1010.8
20200226093121 59 221 0.0 0.0 0.00 0.05 0.01 88 1010.6
20200226092614 59 221 0.0 0.0 0.00 0.05 0.01 88 1010.6
20200226092127 59 221 0.0 0.0 0.00 0.05 0.01 88 1010.7
20200226091619 59 221 0.0 0.0 0.00 0.05 0.01 88 1010.6
20200226091113 60 221 0.0 0.0 0.00 0.05 0.01 88 1010.6
20200226090624 59 221 0.0 0.0 0.00 0.15 0.01 88 1010.7
20200226090118 59 221 0.0 0.0 0.00 0.15 0.01 88 1010.9
20200226085613 59 221 0.0 0.0 0.00 0.15 0.01 88 1010.7
20200226085126 59 221 0.0 0.0 0.00 0.15 0.01 88 1010.7
20200226084618 59 221 0.0 0.0 0.01 0.15 0.01 88 1010.6
20200226084131 59 221 0.0 0.0 0.01 0.15 0.01 88 1010.9
20200226083623 59 221 0.0 0.0 0.01 0.15 0.01 88 1011.0
20200226083116 59 221 0.0 0.0 0.01 0.15 0.01 88 1010.8
20200226082628 59 221 0.0 0.0 0.01 0.15 0.01 88 1010.6
20200226082121 59 221 0.0 0.0 0.01 0.15 0.01 88 1010.6
20200226081613 59 221 0.0 0.0 0.01 0.15 0.01 88 1010.8
20200226081127 59 221 0.0 0.0 0.01 0.15 0.01 88 1010.6
20200226080619 59 221 0.0 0.0 0.01 0.26 0.01 88 1010.5
20200226080113 59 221 0.0 0.0 0.01 0.26 0.01 88 1010.5
20200226075624 59 221 0.0 0.0 0.01 0.26 0.01 88 1010.5
20200226075117 59 221 0.0 0.0 0.01 0.26 0.01 88 1010.8
20200226074629 59 222 0.0 0.0 0.00 0.25 0.00 88 1010.9
20200226074122 59 222 0.0 0.0 0.00 0.25 0.00 88 1010.6
20200226073615 59 222 0.0 0.0 0.00 0.25 0.00 88 1010.5
20200226073129 59 222 0.0 0.0 0.00 0.25 0.00 88 1010.8
20200226072621 59 222 0.0 0.0 0.00 0.25 0.00 88 1010.7
20200226072114 59 222 0.0 0.0 0.00 0.25 0.00 88 1010.8
20200226071627 59 222 0.0 0.0 0.00 0.25 0.00 87 1010.9
20200226071124 59 222 0.0 0.0 0.00 0.25 0.00 87 1010.8
20200226070617 58 222 0.0 0.0 0.00 0.40 0.00 87 1010.9
20200226070130 58 222 0.0 0.0 0.00 0.40 0.00 87 1010.9
20200226065621 58 222 0.0 0.0 0.00 0.40 0.00 87 1010.9
20200226065114 58 222 0.0 0.0 0.00 0.40 0.00 87 1010.8
20200226064626 58 222 0.0 0.0 0.00 0.40 0.00 87 1011.0
20200226064126 59 222 0.0 0.0 0.00 0.40 0.00 87 1010.9
20200226063619 59 222 0.0 0.0 0.00 0.40 0.00 87 1011.0
20200226063131 59 222 0.0 0.0 0.00 0.40 0.00 87 1011.1
20200226062624 59 222 0.0 0.0 0.00 0.40 0.00 87 1011.2
20200226062117 59 222 0.0 0.0 0.00 0.40 0.00 87 1011.3
20200226061631 59 222 0.0 0.0 0.00 0.40 0.00 87 1011.1
20200226061123 59 222 0.0 0.0 0.00 0.40 0.00 87 1011.1
20200226060616 59 222 0.0 0.0 0.00 0.48 0.00 87 1011.1
20200226060128 59 222 0.0 0.0 0.00 0.48 0.00 87 1011.2
20200226055622 59 222 0.0 0.0 0.00 0.48 0.00 87 1011.0
20200226055112 59 222 0.0 0.0 0.00 0.48 0.00 87 1011.1
20200226054626 59 222 0.0 0.0 0.00 0.48 0.00 87 1011.1
20200226054118 59 222 0.0 0.0 0.00 0.48 0.00 87 1011.2
20200226053613 59 222 0.0 0.0 0.00 0.48 0.00 87 1011.1
20200226053125 59 222 0.0 0.0 0.00 0.48 0.00 87 1011.1
20200226052619 59 222 0.0 0.0 0.00 0.48 0.00 87 1010.9
20200226052130 59 222 0.0 0.0 0.00 0.48 0.00 87 1010.9
20200226051624 59 222 0.0 0.0 0.00 0.48 0.00 87 1010.9
20200226051121 59 222 0.0 0.0 0.00 0.48 0.00 87 1010.8
20200226050612 60 222 0.0 0.0 0.00 0.74 0.48 87 1010.8
20200226050124 60 211 0.0 0.0 0.00 0.74 0.48 87 1010.8
20200226045616 60 211 0.0 0.0 0.00 0.74 0.48 87 1011.0
20200226045114 59 211 0.0 0.0 0.00 0.74 0.48 87 1010.9
20200226044627 59 211 0.0 0.0 0.00 0.74 0.48 87 1010.7
20200226044120 60 211 0.0 0.0 0.00 0.74 0.48 87 1010.6
20200226043631 60 211 0.0 0.0 0.00 0.74 0.48 87 1010.6
20200226043124 60 211 0.0 0.0 0.00 0.74 0.48 87 1010.8
20200226042617 60 211 0.0 0.0 0.00 0.74 0.48 87 1011.0
20200226042130 60 211 0.0 0.0 0.00 0.74 0.48 87 1010.9
20200226041620 60 211 0.0 0.0 0.00 0.74 0.48 87 1010.8
20200226041114 60 211 0.0 0.0 0.00 0.74 0.48 87 1010.7
20200226040626 60 211 0.0 0.0 0.00 0.79 0.48 87 1010.8
20200226040120 60 211 0.0 0.0 0.00 0.79 0.48 87 1011.0
20200226035631 61 211 0.0 0.0 0.00 0.79 0.48 87 1011.1
20200226035125 61 211 0.0 0.0 0.00 0.79 0.48 87 1011.0
20200226034617 61 211 0.0 0.0 0.00 0.79 0.48 87 1011.0
20200226034130 61 211 0.0 0.0 0.00 0.79 0.48 87 1011.1
20200226033621 61 211 0.0 0.0 0.00 0.79 0.48 87 1011.1
20200226033115 61 211 0.0 0.0 0.00 0.79 0.48 87 1011.1
20200226032627 61 211 0.0 0.0 0.00 0.79 0.48 87 1011.2
20200226032119 61 211 0.0 0.0 0.00 0.79 0.48 87 1011.2
20200226031630 61 211 0.0 0.0 0.00 0.79 0.48 87 1011.2
20200226031123 62 211 0.0 0.0 0.00 0.79 0.48 87 1011.2
20200226030620 62 211 0.0 0.0 0.00 0.85 0.48 87 1011.2
20200226030113 62 211 0.0 0.0 0.00 0.85 0.48 87 1011.2
20200226025625 62 211 0.0 0.0 0.00 0.85 0.48 87 1011.2
20200226025118 62 211 0.0 0.0 0.00 0.85 0.48 87 1011.3
20200226024631 62 211 0.0 0.0 0.00 0.85 0.48 87 1011.2
20200226024125 62 211 0.0 0.0 0.00 0.85 0.48 87 1011.3
20200226023617 62 211 0.0 0.0 0.00 0.85 0.48 87 1011.3
20200226023131 62 211 0.0 0.0 0.00 0.85 0.48 87 1011.4
20200226022624 62 211 0.0 0.0 0.00 0.85 0.48 87 1011.4
20200226022117 63 211 0.0 0.0 0.00 0.85 0.48 87 1011.3
20200226021631 63 211 0.0 0.0 0.00 0.85 0.48 87 1011.2
20200226021123 63 211 0.0 0.0 0.00 0.85 0.48 87 1011.0
20200226020616 63 211 0.0 0.0 0.00 0.85 0.48 87 1011.0
20200226020130 63 211 0.0 0.0 0.00 0.85 0.48 87 1010.9
20200226015620 63 211 0.0 0.0 0.00 0.85 0.48 87 1010.9
20200226015113 63 211 0.0 0.0 0.00 0.85 0.48 87 1011.0
20200226014626 63 211 0.0 0.0 0.00 0.85 0.48 87 1011.1
20200226014119 63 211 0.0 0.0 0.00 0.85 0.48 87 1011.1
20200226013612 64 211 0.0 0.0 0.00 0.85 0.48 87 1010.9
20200226013123 64 211 0.0 0.0 0.00 0.85 0.48 87 1011.0
20200226012619 64 211 0.0 0.0 0.00 0.85 0.48 87 1011.0
20200226012112 64 211 0.0 0.0 0.00 0.85 0.48 87 1011.0
20200226011625 64 211 0.0 0.0 0.00 0.85 0.48 87 1011.1
20200226011118 64 211 0.0 0.0 0.00 0.85 0.48 88 1011.1
20200226010630 64 211 0.0 0.0 0.00 0.85 0.48 88 1011.0
20200226010123 64 212 0.0 0.0 0.00 0.85 0.48 88 1011.0
20200226005614 64 211 0.0 0.0 0.00 0.85 0.48 88 1010.9
20200226005127 64 211 0.0 0.0 0.00 0.85 0.48 88 1010.8
20200226004620 65 211 0.0 0.0 0.00 0.85 0.48 88 1010.8
20200226004113 65 211 0.0 0.0 0.00 0.85 0.48 88 1010.6
20200226003626 65 211 0.0 0.0 0.00 0.85 0.48 88 1010.3
20200226003119 65 211 0.0 0.0 0.00 0.85 0.48 88 1010.2
20200226002630 65 211 0.0 0.0 0.00 0.85 0.48 88 1010.3
20200226002123 65 211 0.0 0.0 0.00 0.85 0.48 88 1010.1
20200226001614 65 211 0.0 0.0 0.00 0.85 0.48 89 1010.1
20200226001128 65 211 0.0 0.0 0.00 0.85 0.48 89 1010.2
20200226000619 65 211 0.0 0.0 0.00 0.85 0.48 89 1010.3
20200226000131 65 211 0.0 1.0 0.00 0.85 0.48 89 1010.3
20200225235623 65 211 0.0 1.0 0.00 0.85 0.48 89 1010.4
20200225235116 66 228 0.0 0.0 0.00 0.85 0.48 89 1010.3
20200225234627 66 229 0.0 0.0 0.00 0.85 0.48 89 1010.3
20200225234126 66 228 0.0 0.0 0.00 0.85 0.48 89 1010.1
20200225233618 66 228 0.0 1.0 0.00 0.85 0.48 89 1010.0
20200225233133 66 228 0.0 1.0 0.00 0.85 0.48 89 1010.0
20200225232625 67 229 0.0 2.0 0.00 0.85 0.48 89 1009.9
20200225232117 67 229 0.0 2.0 0.00 0.85 0.48 89 1010.0
20200225231628 67 225 0.0 2.0 0.00 0.85 0.48 89 1010.0
20200225231123 67 217 1.0 2.0 0.00 0.85 0.48 89 1010.0
20200225230612 67 224 1.0 4.0 0.00 0.86 0.48 89 1010.0
20200225230125 67 222 0.0 2.0 0.00 0.86 0.48 89 1010.0
20200225225615 67 240 1.0 2.0 0.00 0.86 0.48 89 1009.8
20200225225129 67 206 0.0 1.0 0.00 0.86 0.48 89 1009.8
20200225224123 67 229 0.0 1.0 0.00 0.86 0.48 89 1009.9
20200225223616 67 229 0.0 1.0 0.00 0.86 0.48 89 1009.9
20200225223128 68 235 0.0 0.0 0.00 0.86 0.48 89 1009.8
20200225222621 68 235 0.0 0.0 0.00 0.86 0.48 89 1010.0
20200225222114 68 235 0.0 0.0 0.00 0.86 0.48 88 1010.0
20200225221627 68 235 0.0 0.0 0.00 0.86 0.48 88 1009.9
20200225221119 68 238 0.0 2.0 0.00 0.86 0.48 88 1010.1
20200225220613 68 232 1.0 2.0 0.00 0.87 0.48 88 1010.0
20200225220125 68 228 0.0 2.0 0.00 0.87 0.48 87 1010.0
20200225215617 68 232 1.0 2.0 0.00 0.87 0.48 87 1009.9
20200225215128 68 248 1.0 2.0 0.00 0.87 0.48 87 1009.9
20200225214621 69 233 1.0 2.0 0.00 0.87 0.48 86 1009.9
20200225214117 69 214 1.0 2.0 0.00 0.87 0.48 86 1009.6
20200225213631 69 228 0.0 1.0 0.00 0.87 0.48 86 1009.6
20200225213124 69 240 0.0 1.0 0.00 0.87 0.48 86 1009.3
20200225212617 69 255 0.0 2.0 0.00 0.87 0.48 86 1009.4
20200225212129 69 218 0.0 2.0 0.00 0.87 0.48 86 1009.2
20200225211623 69 229 0.0 2.0 0.00 0.87 0.48 86 1009.3
20200225211115 69 250 0.0 2.0 0.00 0.87 0.48 86 1009.4
20200225210628 69 250 1.0 3.0 0.00 0.94 0.48 86 1009.4
20200225210120 69 200 1.0 4.0 0.00 0.94 0.48 86 1009.5
20200225205631 68 267 2.0 4.0 0.00 0.94 0.48 86 1009.4
20200225205124 69 233 0.0 3.0 0.00 0.94 0.48 86 1009.4
20200225204616 68 205 1.0 6.0 0.00 0.94 0.48 86 1009.3
20200225204130 69 262 3.0 6.0 0.00 0.94 0.48 85 1009.6
20200225203623 69 159 2.0 6.0 0.00 0.94 0.48 85 1009.5
20200225203116 69 245 3.0 6.0 0.00 0.94 0.48 84 1009.4
20200225202630 69 233 3.0 6.0 0.00 0.94 0.48 84 1009.6
20200225202121 69 236 4.0 7.0 0.00 0.94 0.48 84 1009.5
20200225201613 70 226 2.0 6.0 0.00 0.94 0.48 84 1009.3
20200225201126 70 187 3.0 6.0 0.00 0.94 0.48 83 1009.6
20200225200619 70 210 2.0 4.0 0.00 0.98 0.48 83 1009.6
20200225200115 70 110 1.0 5.0 0.00 0.98 0.48 83 1009.6
20200225195627 70 224 3.0 5.0 0.00 0.98 0.48 83 1009.5
20200225195123 70 236 2.0 7.0 0.00 0.98 0.48 83 1009.6
20200225194615 70 233 4.0 8.0 0.00 0.98 0.48 83 1009.6
20200225194128 70 188 4.0 8.0 0.00 0.98 0.48 83 1009.4
20200225193624 70 283 4.0 7.0 0.00 0.98 0.48 83 1009.6
20200225193117 70 269 2.0 10.0 0.00 0.98 0.48 83 1009.6
20200225192630 69 155 3.0 10.0 0.00 0.98 0.48 84 1009.7
20200225192123 69 259 5.0 8.0 0.00 0.98 0.48 83 1009.5
20200225191616 69 215 3.0 8.0 0.00 0.98 0.48 84 1009.7
20200225191131 69 250 4.0 8.0 0.00 0.98 0.48 84 1009.7
20200225190623 69 284 2.0 6.0 0.00 1.00 0.48 85 1009.7
20200225190116 68 212 3.0 8.0 0.00 1.00 0.48 86 1009.8
20200225185627 68 300 4.0 10.0 0.00 1.00 0.48 86 1010.0
20200225185120 67 238 4.0 10.0 0.00 1.00 0.48 86 1010.0
20200225184613 67 243 6.0 10.0 0.00 1.00 0.48 86 1010.1
20200225184126 68 228 5.0 10.0 0.00 1.00 0.48 86 1010.2
20200225183619 67 208 5.0 9.0 0.00 1.00 0.48 87 1010.3
20200225183112 67 249 2.0 9.0 0.00 1.00 0.48 87 1010.2
20200225182624 66 222 4.0 9.0 0.00 1.00 0.48 88 1010.4
20200225182117 66 256 4.0 9.0 0.00 1.00 0.48 88 1010.5
20200225181628 66 240 4.0 9.0 0.00 1.00 0.48 88 1010.6
20200225181122 66 243 3.0 9.0 0.00 1.00 0.48 88 1010.6
20200225180614 65 238 5.0 9.0 0.00 1.02 0.48 88 1010.8
20200225180112 65 274 2.0 7.0 0.00 1.02 0.48 89 1010.8
20200225175623 65 266 3.0 9.0 0.00 1.02 0.48 89 1011.0
20200225175117 65 228 5.0 12.0 0.00 1.02 0.48 88 1011.0
20200225174631 65 217 4.0 12.0 0.00 1.02 0.48 88 1011.1
20200225174123 65 262 4.0 7.0 0.00 1.02 0.48 88 1011.2
20200225173615 65 231 3.0 7.0 0.00 1.02 0.48 89 1011.2
20200225173128 65 229 3.0 7.0 0.00 1.02 0.48 89 1011.2
20200225172620 65 250 3.0 7.0 0.00 1.02 0.48 89 1011.4
20200225172114 64 271 2.0 7.0 0.00 1.02 0.48 89 1011.4
20200225171626 64 229 4.0 7.0 0.00 1.02 0.48 89 1011.5
20200225171120 64 253 1.0 6.0 0.00 1.02 0.48 89 1011.6
20200225170631 64 208 3.0 6.0 0.00 1.03 0.48 89 1011.7
20200225170124 64 269 2.0 7.0 0.00 1.03 0.48 89 1011.8
20200225165615 64 250 3.0 7.0 0.00 1.03 0.48 89 1011.8
20200225165128 64 243 3.0 6.0 0.00 1.03 0.48 89 1011.8
20200225164621 64 217 3.0 8.0 0.00 1.03 0.48 89 1011.7
20200225164114 64 227 3.0 8.0 0.00 1.03 0.48 89 1011.8
20200225163627 64 183 4.0 7.0 0.00 1.03 0.48 89 1011.8
20200225163120 65 266 2.0 7.0 0.00 1.03 0.48 89 1011.9
20200225162612 64 210 2.0 8.0 0.00 1.03 0.48 89 1011.8
20200225162125 64 231 4.0 9.0 0.00 1.03 0.48 89 1011.9
20200225161621 64 232 2.0 6.0 0.00 1.03 0.48 89 1011.9
20200225161114 64 229 3.0 6.0 0.00 1.03 0.48 89 1011.9
20200225160627 64 229 3.0 5.0 0.00 1.04 0.48 89 1011.9
20200225160120 64 291 3.0 9.0 0.00 1.04 0.48 89 1011.9
20200225155630 64 233 4.0 9.0 0.00 1.04 0.48 89 1011.9
20200225155122 64 238 3.0 9.0 0.00 1.04 0.48 89 1011.8
20200225154614 64 273 3.0 6.0 0.00 1.04 0.48 89 1011.7
20200225154126 64 240 3.0 6.0 0.00 1.04 0.48 89 1011.6
20200225153619 64 208 2.0 6.0 0.00 1.04 0.48 89 1011.6
20200225153112 64 237 4.0 8.0 0.00 1.04 0.48 90 1011.6
20200225152625 63 266 3.0 8.0 0.00 1.04 0.48 90 1011.7
20200225152117 63 260 3.0 7.0 0.00 1.04 0.48 90 1011.5
20200225151631 63 218 2.0 5.0 0.00 1.04 0.48 89 1011.4
20200225151123 63 226 2.0 5.0 0.00 1.04 0.48 89 1011.4
20200225150616 63 259 3.0 8.0 0.00 1.04 0.48 89 1011.3
20200225150128 62 225 3.0 8.0 0.00 1.04 0.48 89 1011.4
20200225145620 62 220 3.0 7.0 0.00 1.04 0.48 89 1011.4
20200225145113 62 214 3.0 6.0 0.00 1.04 0.48 88 1011.4
20200225144627 62 257 2.0 5.0 0.00 1.04 0.48 88 1011.4
20200225144120 62 251 2.0 6.0 0.00 1.04 0.48 88 1011.5
20200225143617 61 233 3.0 8.0 0.00 1.04 0.48 88 1011.4
20200225143130 61 259 4.0 8.0 0.00 1.04 0.48 88 1011.5
20200225142623 61 259 4.0 6.0 0.00 1.04 0.48 88 1011.4